This is the latest recevied weather packets stored in our database for station/object W1ERB-13. If no packets are shown the sender has not sent any weather packets the latest 10 day(s).
| Time | Temp. | Humidity | Pressure | Rain* | Wind** | Luminosity | Snow |
|---|---|---|---|---|---|---|---|
| 1777918012 | 20.56° C | 32% | 1009.2 hPa | 0 mm | - | 698 W/m² | - |
| 1777917710 | 20.56° C | 31% | 1009.3 hPa | 0 mm | - | 696 W/m² | - |
| 1777917407 | 20.56° C | 34% | 1009.2 hPa | 0 mm | - | 689 W/m² | - |
| 1777917103 | 20.56° C | 33% | 1009.3 hPa | 0 mm | - | 695 W/m² | - |
| 1777916802 | 20° C | 35% | 1009.4 hPa | 0 mm | - | 691 W/m² | - |
| 1777916498 | 20.56° C | 34% | 1009.5 hPa | 0 mm | - | 717 W/m² | - |
| 1777916195 | 20° C | 32% | 1009.7 hPa | 0 mm | - | 704 W/m² | - |
| 1777915893 | 20.56° C | 31% | 1009.5 hPa | 0 mm | - | 707 W/m² | - |
| 1777915589 | 20° C | 33% | 1009.7 hPa | 0 mm | - | 712 W/m² | - |
| 1777915286 | 20° C | 33% | 1009.6 hPa | 0 mm | - | 715 W/m² | - |
| 1777914982 | 20° C | 32% | 1009.6 hPa | 0 mm | - | 719 W/m² | - |
| 1777914680 | 20° C | 34% | 1009.7 hPa | 0 mm | - | 720 W/m² | - |
| 1777914375 | 19.44° C | 32% | 1009.8 hPa | 0 mm | - | 722 W/m² | - |
| 1777914073 | 19.44° C | 32% | 1009.7 hPa | 0 mm | - | 721 W/m² | - |
| 1777913769 | 19.44° C | 32% | 1010 hPa | 0 mm | - | 726 W/m² | - |
| 1777913465 | 19.44° C | 33% | 1009.9 hPa | 0 mm | - | 717 W/m² | - |
| 1777913162 | 19.44° C | 33% | 1009.9 hPa | 0 mm | - | 715 W/m² | - |
| 1777912858 | 19.44° C | 32% | 1010 hPa | 0 mm | - | 709 W/m² | - |
| 1777912555 | 20° C | 33% | 1009.8 hPa | 0 mm | - | 723 W/m² | - |
| 1777912251 | 19.44° C | 34% | 1009.9 hPa | 0 mm | - | 720 W/m² | - |
| 1777911947 | 20° C | 33% | 1009.9 hPa | 0 mm | - | 722 W/m² | - |
| 1777911644 | 18.89° C | 33% | 1010 hPa | 0 mm | - | 719 W/m² | - |
| 1777911340 | 18.89° C | 31% | 1010.4 hPa | 0 mm | - | 721 W/m² | - |
| 1777911038 | 18.89° C | 32% | 1010.3 hPa | 0 mm | - | 721 W/m² | - |
| 1777910735 | 18.89° C | 34% | 1010.2 hPa | 0 mm | - | 689 W/m² | - |
* Rain latest hour (hover to see other rain measurements)
** Current wind speed in m/s (hover to see current wind gust speed)